| time (UTC) | temp F | wind direction | speed knots | gust knots | rain 1hr in | rain 24hr in | rain mn in | humidity % | barometer mb |
| 20260506191545 | 54 | 277 | 4.3 | 11.3 | 0.00 | 1.06 | 0.14 | 63 | 1013.3 |
| 20260506190044 | 54 | 290 | 7.8 | 12.2 | 0.00 | 1.06 | 0.14 | 62 | 1013.4 |
| 20260506184544 | 54 | 287 | 8.7 | 13.9 | 0.00 | 1.11 | 0.14 | 60 | 1013.3 |
| 20260506183043 | 54 | 360 | 10.4 | 14.8 | 0.00 | 1.11 | 0.14 | 63 | 1013.2 |
| 20260506181542 | 54 | 360 | 7.0 | 13.9 | 0.00 | 1.11 | 0.14 | 62 | 1013.2 |
| 20260506180044 | 55 | 309 | 12.2 | 17.4 | 0.00 | 1.11 | 0.14 | 61 | 1013.2 |
| 20260506174546 | 55 | 302 | 10.4 | 14.8 | 0.00 | 1.17 | 0.14 | 62 | 1013.5 |
| 20260506173046 | 55 | 284 | 12.2 | 15.6 | 0.00 | 1.17 | 0.14 | 66 | 1013.5 |
| 20260506171549 | 55 | 272 | 5.2 | 15.6 | 0.00 | 1.17 | 0.14 | 64 | 1013.5 |
| 20260506170040 | 55 | 360 | 7.8 | 14.8 | 0.00 | 1.17 | 0.14 | 63 | 1013.5 |
| 20260506164551 | 55 | 360 | 9.6 | 13.9 | 0.00 | 1.17 | 0.14 | 63 | 1013.6 |
| 20260506163035 | 54 | 276 | 9.6 | 13.9 | 0.00 | 1.17 | 0.14 | 63 | 1013.6 |
| 20260506161534 | 54 | 360 | 8.7 | 12.2 | 0.00 | 1.17 | 0.14 | 63 | 1013.4 |
| 20260506160131 | 54 | 360 | 7.8 | 13.9 | 0.00 | 1.17 | 0.14 | 68 | 1013.6 |
| 20260506154527 | 53 | 288 | 8.7 | 13.0 | 0.00 | 1.17 | 0.14 | 66 | 1013.3 |
| 20260506153025 | 53 | 329 | 7.8 | 12.2 | 0.00 | 1.17 | 0.14 | 68 | 1012.8 |
| 20260506151524 | 53 | 360 | 7.8 | 12.2 | 0.00 | 1.17 | 0.14 | 66 | 1012.9 |
| 20260506150020 | 52 | 360 | 7.0 | 10.4 | 0.00 | 1.17 | 0.14 | 71 | 1012.9 |
| 20260506144516 | 52 | 313 | 7.8 | 11.3 | 0.00 | 1.17 | 0.14 | 74 | 1012.6 |
| 20260506143014 | 51 | 279 | 7.0 | 13.0 | 0.00 | 1.17 | 0.14 | 74 | 1012.4 |
| 20260506141509 | 50 | 360 | 8.7 | 13.9 | 0.00 | 1.17 | 0.14 | 77 | 1012.1 |
| 20260506140006 | 49 | 360 | 7.0 | 12.2 | 0.00 | 1.17 | 0.14 | 79 | 1012.2 |
| 20260506134504 | 48 | 360 | 8.7 | 12.2 | 0.00 | 1.17 | 0.14 | 79 | 1012.1 |
| 20260506133001 | 48 | 360 | 8.7 | 12.2 | 0.00 | 1.17 | 0.14 | 81 | 1012.1 |
| 20260506131559 | 47 | 296 | 7.8 | 11.3 | 0.00 | 1.17 | 0.14 | 82 | 1011.6 |
| 20260506130055 | 47 | 360 | 7.0 | 11.3 | 0.00 | 1.17 | 0.14 | 85 | 1011.4 |
| 20260506124554 | 46 | 360 | 7.8 | 11.3 | 0.00 | 1.17 | 0.14 | 86 | 1011.4 |
| 20260506123053 | 45 | 360 | 7.0 | 12.2 | 0.00 | 1.17 | 0.14 | 85 | 1011.2 |
| 20260506121600 | 45 | 271 | 7.0 | 10.4 | 0.00 | 1.17 | 0.14 | 87 | 1011.0 |
| 20260506120115 | 44 | 360 | 4.3 | 7.8 | 0.00 | 1.17 | 0.14 | 89 | 1010.6 |
| 20260506114549 | 44 | 290 | 3.5 | 7.0 | 0.00 | 1.17 | 0.14 | 90 | 1010.4 |
| 20260506113049 | 44 | 286 | 4.3 | 7.0 | 0.00 | 1.17 | 0.14 | 91 | 1010.5 |
| 20260506111548 | 44 | 360 | 2.6 | 5.2 | 0.00 | 1.17 | 0.14 | 92 | 1010.7 |
| 20260506110047 | 44 | 273 | 2.6 | 6.1 | 0.00 | 1.17 | 0.14 | 92 | 1010.6 |
| 20260506104544 | 44 | 274 | 2.6 | 5.2 | 0.00 | 1.17 | 0.14 | 92 | 1010.0 |
| 20260506103043 | 44 | 275 | 1.7 | 5.2 | 0.00 | 1.17 | 0.14 | 91 | 1009.8 |
| 20260506101546 | 44 | 310 | 1.7 | 2.6 | 0.00 | 1.17 | 0.14 | 91 | 1009.3 |
| 20260506100043 | 44 | 311 | 0.9 | 2.6 | 0.00 | 1.17 | 0.14 | 91 | 1009.1 |
| 20260506094546 | 44 | 311 | 0.0 | 3.5 | 0.00 | 1.17 | 0.14 | 91 | 1009.0 |
| 20260506093047 | 44 | 310 | 1.7 | 7.0 | 0.01 | 1.17 | 0.14 | 91 | 1009.4 |
| 20260506091541 | 44 | 360 | 7.8 | 10.4 | 0.01 | 1.17 | 0.14 | 91 | 1010.0 |
| 20260506090040 | 44 | 360 | 3.5 | 5.2 | 0.01 | 1.17 | 0.14 | 91 | 1009.2 |
| 20260506084536 | 44 | 360 | 1.7 | 3.5 | 0.01 | 1.17 | 0.14 | 91 | 1009.1 |
| 20260506083041 | 44 | 329 | 1.7 | 3.5 | 0.00 | 1.15 | 0.13 | 91 | 1009.6 |
| 20260506081535 | 44 | 360 | 2.6 | 3.5 | 0.01 | 1.15 | 0.13 | 90 | 1009.6 |
| 20260506073031 | 44 | 360 | 3.5 | 7.0 | 0.05 | 1.15 | 0.13 | 91 | 1008.9 |
| 20260506071528 | 44 | 325 | 5.2 | 7.8 | 0.05 | 1.14 | 0.12 | 92 | 1009.7 |
| 20260506061531 | 46 | 360 | 6.1 | 8.7 | 0.07 | 1.10 | 0.07 | 94 | 1009.3 |
| 20260506044517 | 46 | 360 | 4.3 | 7.8 | 0.04 | 1.02 | 1.02 | 93 | 1009.0 |
| 20260506043013 | 46 | 360 | 3.5 | 5.2 | 0.08 | 1.02 | 1.02 | 93 | 1008.9 |
| 20260506041507 | 46 | 360 | 2.6 | 6.1 | 0.09 | 1.01 | 1.01 | 93 | 1009.1 |
| 20260506040006 | 46 | 303 | 2.6 | 4.3 | 0.10 | 1.00 | 1.00 | 94 | 1009.2 |
| 20260506034504 | 47 | 298 | 1.7 | 2.6 | 0.12 | 0.98 | 0.98 | 94 | 1009.2 |
| 20260506033004 | 47 | 299 | 0.0 | 1.7 | 0.11 | 0.94 | 0.94 | 94 | 1009.3 |
| 20260506031503 | 47 | 299 | 0.0 | 0.0 | 0.12 | 0.92 | 0.92 | 94 | 1009.2 |
| 20260506030002 | 47 | 299 | 0.9 | 1.7 | 0.13 | 0.90 | 0.90 | 94 | 1009.1 |
| 20260506024501 | 47 | 300 | 0.0 | 1.7 | 0.11 | 0.86 | 0.86 | 94 | 1009.7 |
| 20260506023100 | 47 | 360 | 0.9 | 1.7 | 0.11 | 0.83 | 0.83 | 93 | 1009.9 |
| 20260506021612 | 47 | 299 | 0.0 | 2.6 | 0.11 | 0.80 | 0.80 | 93 | 1009.8 |
| 20260506020057 | 47 | 311 | 1.7 | 4.3 | 0.10 | 0.77 | 0.77 | 93 | 1009.7 |
| 20260506014601 | 47 | 315 | 3.5 | 5.2 | 0.09 | 0.75 | 0.75 | 93 | 1009.1 |
| 20260506013054 | 47 | 327 | 0.9 | 2.6 | 0.07 | 0.72 | 0.72 | 93 | 1009.1 |
| 20260506011558 | 47 | 342 | 0.9 | 1.7 | 0.05 | 0.69 | 0.69 | 92 | 1009.0 |
| 20260506010055 | 47 | 340 | 0.9 | 3.5 | 0.04 | 0.67 | 0.67 | 92 | 1008.9 |
| 20260506004623 | 47 | 360 | 1.7 | 3.5 | 0.04 | 0.66 | 0.66 | 93 | 1008.6 |
| 20260506003049 | 48 | 360 | 2.6 | 4.3 | 0.05 | 0.65 | 0.65 | 93 | 1008.7 |
| 20260506001548 | 48 | 360 | 2.6 | 4.3 | 0.06 | 0.64 | 0.64 | 93 | 1008.6 |
| 20260506000048 | 48 | 360 | 3.5 | 7.8 | 0.07 | 0.63 | 0.63 | 93 | 1008.7 |
| 20260505234608 | 49 | 322 | 2.6 | 5.2 | 0.08 | 0.62 | 0.62 | 94 | 1008.8 |
| 20260505233042 | 48 | 331 | 4.3 | 8.7 | 0.08 | 0.60 | 0.60 | 93 | 1008.7 |
| 20260505231539 | 49 | 360 | 5.2 | 10.4 | 0.07 | 0.57 | 0.57 | 93 | 1008.5 |
| 20260505230037 | 49 | 329 | 2.6 | 7.0 | 0.06 | 0.56 | 0.56 | 93 | 1008.2 |
| 20260505224536 | 49 | 360 | 3.5 | 7.0 | 0.04 | 0.54 | 0.54 | 92 | 1008.1 |
| 20260505223046 | 50 | 342 | 3.5 | 8.7 | 0.06 | 0.52 | 0.52 | 92 | 1008.0 |
| 20260505221541 | 50 | 360 | 2.6 | 7.8 | 0.09 | 0.51 | 0.51 | 93 | 1008.0 |
| 20260505220035 | 49 | 15 | 2.6 | 8.7 | 0.16 | 0.50 | 0.50 | 93 | 1008.3 |
| 20260505214540 | 50 | 319 | 1.7 | 3.5 | 0.24 | 0.50 | 0.50 | 93 | 1008.3 |
| 20260505213033 | 50 | 316 | 1.7 | 4.3 | 0.23 | 0.46 | 0.46 | 93 | 1008.2 |
| 20260505211533 | 49 | 360 | 3.5 | 7.8 | 0.19 | 0.41 | 0.41 | 92 | 1008.2 |
| 20260505210033 | 50 | 360 | 4.3 | 7.8 | 0.13 | 0.33 | 0.33 | 91 | 1007.8 |
| 20260505204529 | 50 | 318 | 7.0 | 10.4 | 0.07 | 0.26 | 0.26 | 91 | 1007.7 |
| 20260505203027 | 51 | 317 | 9.6 | 13.9 | 0.06 | 0.23 | 0.23 | 91 | 1007.6 |
| 20260505201528 | 52 | 304 | 6.1 | 8.7 | 0.08 | 0.22 | 0.22 | 93 | 1007.7 |
| 20260505200028 | 52 | 360 | 4.3 | 7.8 | 0.09 | 0.20 | 0.20 | 93 | 1007.8 |
| 20260505194523 | 52 | 360 | 8.7 | 13.0 | 0.09 | 0.19 | 0.19 | 92 | 1008.0 |
| 20260505193020 | 53 | 360 | 7.8 | 12.2 | 0.08 | 0.17 | 0.17 | 92 | 1008.4 |